Weather History for Belleville, IL

Change the Weather History Date:

Friday, April 18, 2014

  Actual Average Record
Temperature  
Mean Temperature 57 °F -  
Max Temperature 70 °F 70 °F 89 °F (2002)
Min Temperature 45 °F 46 °F 29 °F (1983)
Degree Days  
Heating Degree Days 8    
Growing Degree Days 7 (Base 50)    
Moisture  
Dew Point 43 °F    
Average Humidity 62    
Maximum Humidity 87    
Minimum Humidity 39    
Precipitation  
Precipitation 0.00 in - - ()
Sea Level Pressure  
Sea Level Pressure 30.27 in    
Wind  
Wind Speed 5 mph (North)    
Max Wind Speed 7 mph    
Max Gust Speed -    
Visibility 10 miles    
Events      
Averages and records for this station are not official NWS values.
T = Trace of Precipitation, MM = Missing Value Source: NWS Daily Summary

Daily Weather History Graph

Daily Weather History Graph

Search for Another Location

Airport:

Trip Planner

Search our weather history database for the weather conditions in past years. The results will help you decide how hot, cold, wet, or windy it might be!

Date:

Astronomy

Apr. 18, 2014 Rise Set
Actual Time 6:19 AM CDT 7:38 PM CDT
Civil Twilight 5:51 AM CDT 8:06 PM CDT
Nautical Twilight 5:18 AM CDT 8:39 PM CDT
Astronomical Twilight 4:43 AM CDT 9:14 PM CDT
Moon 11:22 PM CDT (4/18) 8:42 AM CDT (4/18)
Length of Visible Light 14h 15m
Length of Day
13h 19m
Waning Gibbous, 87% of the Moon is Illuminated
Apr 18
Waning Gibbous
Apr 22
Last Quarter
Apr 29
New
May 6
First Quarter
May 14
Full

Hourly Weather History & Observations

Time (CDT) Temp. Windchill Dew Point Humidity Pressure Visibility Wind Dir Wind Speed Gust Speed Precip Events Conditions
12:58 AM 53.8 °F - 42.6 °F 66% 30.26 in 10.0 mi North 6.9 mph - N/A   Clear
1:58 AM 52.5 °F - 42.3 °F 68% 30.26 in 10.0 mi North 5.8 mph - N/A   Mostly Cloudy
2:58 AM 48.9 °F - 41.4 °F 75% 30.26 in 10.0 mi WNW 5.8 mph - N/A   Mostly Cloudy
3:58 AM 46.6 °F - 41.9 °F 84% 30.26 in 10.0 mi NW 1.2 mph - N/A   Overcast
4:58 AM 48.7 °F - 42.4 °F 79% 30.27 in 10.0 mi North 4.6 mph - N/A   Partly Cloudy
5:58 AM 45.7 °F 42.0 °F 42.1 °F 87% 30.29 in 10.0 mi North 6.9 mph - N/A   Clear
6:58 AM 46.0 °F 43.9 °F 41.7 °F 85% 30.30 in 10.0 mi North 4.6 mph - N/A   Scattered Clouds
7:58 AM 50.4 °F - 41.2 °F 71% 30.31 in 10.0 mi North 6.9 mph - N/A   Clear
8:58 AM 54.7 °F - 41.9 °F 62% 30.31 in 10.0 mi NNE 5.8 mph - N/A   Clear
9:58 AM 59.0 °F - 43.5 °F 56% 30.32 in 10.0 mi ENE 6.9 mph - N/A   Clear
10:58 AM 61.0 °F - 44.1 °F 54% 30.32 in 10.0 mi North 3.5 mph - N/A   Clear
11:58 AM 64.4 °F - 45.1 °F 50% 30.32 in 10.0 mi Variable 5.8 mph - N/A   Clear
12:58 PM 66.4 °F - 45.5 °F 47% 30.31 in 10.0 mi NNE 5.8 mph - N/A   Clear
1:58 PM 68.2 °F - 45.7 °F 44% 30.29 in 10.0 mi Variable 1.2 mph - N/A   Clear
2:58 PM 68.7 °F - 44.6 °F 42% 30.27 in 10.0 mi NNE 5.8 mph - N/A   Clear
3:58 PM 68.7 °F - 44.6 °F 42% 30.24 in 10.0 mi Variable 4.6 mph - N/A   Clear
4:58 PM 69.8 °F - 44.6 °F 40% 30.23 in 10.0 mi Variable 4.6 mph - N/A   Clear
5:58 PM 69.1 °F - 43.3 °F 39% 30.22 in 10.0 mi NE 4.6 mph - N/A   Clear
6:58 PM 67.6 °F - 43.5 °F 42% 30.21 in 10.0 mi NE 2.3 mph - N/A   Clear
7:58 PM 64.2 °F - 42.8 °F 46% 30.22 in 10.0 mi Calm Calm - N/A   Clear
8:58 PM 57.2 °F - 45.0 °F 64% 30.23 in 10.0 mi NNE 2.3 mph - N/A   Clear
9:58 PM 51.8 °F - 44.8 °F 77% 30.25 in 10.0 mi North 2.3 mph - N/A   Clear
10:58 PM 50.4 °F - 45.1 °F 82% 30.24 in 10.0 mi North 3.5 mph - N/A   Clear
11:58 PM 50.2 °F - 43.7 °F 78% 30.25 in 10.0 mi North 2.3 mph - N/A   Clear